.
WxDataArchive / Data Records for 2010-07-08
2010-07-07 July 2010 2010-07-09

Data Records for Thursday, 08 July 2010

Time	Temp	Chill	HIndex	Humid	Dewpt	 Wind 	HiWind	WindDir	Rain 	Barom 
-----	----	-----	------	-----	-----	------	------	-------	-----	----- 
00:00	76.7	76.7	78.4	71	66.6	0	0	---	0.00	30.027 
00:05	76.5	76.5	78.2	71	66.4	0	0	---	0.00	30.027 
00:10	76.5	76.5	78.1	72	66.8	0	0	---	0.00	30.027 
00:15	76.3	76.3	77.9	72	66.6	0	0	---	0.00	30.031 
00:20	76.3	76.3	77.8	73	67.0	0	0	---	0.00	30.031 
00:25	76.1	76.1	77.6	73	66.8	0	0	---	0.00	30.031 
00:30	76.1	76.1	77.5	74	67.2	0	0	---	0.00	30.032 
00:35	76.0	76.0	77.4	74	67.1	0	0	---	0.00	30.032 
00:40	76.0	76.0	77.4	74	67.1	0	0	---	0.00	30.032 
00:45	75.8	75.8	77.1	75	67.3	0	0	---	0.00	30.031 
00:50	75.8	75.8	77.0	76	67.7	0	0	---	0.00	30.031 
00:55	75.6	75.6	76.8	76	67.5	0	0	---	0.00	30.031 
01:00	75.4	75.4	76.5	76	67.3	0	0	---	0.00	30.031 
01:05	75.3	75.3	76.4	76	67.2	0	0	---	0.00	30.031 
01:10	75.3	75.3	76.3	77	67.6	0	0	---	0.00	30.031 
01:15	75.3	75.3	76.3	77	67.6	0	0	---	0.00	30.029 
01:20	75.1	75.1	76.1	77	67.4	0	0	---	0.00	30.029 
01:25	75.1	75.1	76.0	78	67.8	0	0	---	0.00	30.029 
01:30	74.9	74.9	74.9	78	67.6	0	0	---	0.00	30.027 
01:35	74.9	74.9	74.9	78	67.6	0	0	---	0.00	30.027 
01:40	74.9	74.9	74.9	78	67.6	0	0	---	0.00	30.027 
01:45	74.9	74.9	74.9	78	67.6	0	0	---	0.00	30.022 
01:50	74.9	74.9	74.9	79	67.9	0	0	---	0.00	30.022 
01:55	74.7	74.7	74.7	79	67.7	0	0	---	0.00	30.022 
02:00	74.7	74.7	74.7	79	67.7	0	0	---	0.00	30.021 
02:05	74.6	74.6	74.6	80	68.0	0	0	---	0.00	30.021 
02:10	74.4	74.4	74.4	80	67.8	0	0	---	0.00	30.021 
02:15	74.4	74.4	74.4	81	68.2	0	0	---	0.00	30.015 
02:20	74.2	74.2	74.2	81	68.0	0	0	---	0.00	30.015 
02:25	74.2	74.2	74.2	81	68.0	0	0	---	0.00	30.015 
02:30	74.0	74.0	74.0	81	67.8	0	0	---	0.00	30.012 
02:35	74.0	74.0	74.0	82	68.1	0	0	---	0.00	30.012 
02:40	73.9	73.9	73.9	82	68.0	0	0	---	0.00	30.012 
02:45	73.9	73.9	73.9	83	68.4	0	0	---	0.00	30.012 
02:50	73.7	73.7	73.7	83	68.2	0	0	---	0.00	30.012 
02:55	73.7	73.7	73.7	83	68.2	0	0	---	0.00	30.012 
03:00	73.7	73.7	73.7	83	68.2	0	0	---	0.00	30.012 
03:05	73.7	73.7	73.7	83	68.2	0	0	---	0.00	30.012 
03:10	73.7	73.7	73.7	83	68.2	0	0	---	0.00	30.012 
03:15	73.7	73.7	73.7	83	68.2	0	0	---	0.00	30.010 
03:20	73.5	73.5	73.5	83	68.0	0	0	---	0.00	30.010 
03:25	73.5	73.5	73.5	84	68.4	0	0	---	0.00	30.010 
03:30	73.3	73.3	73.3	84	68.2	0	0	---	0.00	30.011 
03:35	73.3	73.3	73.3	84	68.2	0	0	---	0.00	30.011 
03:40	73.2	73.2	73.2	84	68.1	0	0	---	0.00	30.011 
03:45	73.2	73.2	73.2	85	68.4	0	0	---	0.00	30.010 
03:50	73.0	73.0	73.0	85	68.2	0	0	---	0.00	30.010 
03:55	73.0	73.0	73.0	85	68.2	0	0	---	0.00	30.010 
04:00	73.0	73.0	73.0	85	68.2	0	0	---	0.00	30.011 
04:05	72.8	72.8	72.8	85	68.0	0	0	---	0.00	30.011 
04:10	72.7	72.7	72.7	86	68.3	0	0	---	0.00	30.011 
04:15	72.7	72.7	72.7	86	68.3	0	0	---	0.00	30.011 
04:20	72.5	72.5	72.5	86	68.1	0	0	---	0.00	30.011 
04:25	72.3	72.3	72.3	86	67.9	0	0	---	0.00	30.011 
04:30	72.1	72.1	72.1	87	68.0	0	0	---	0.00	30.011 
04:35	72.1	72.1	72.1	87	68.0	0	0	---	0.00	30.011 
04:40	72.0	72.0	72.0	87	67.9	0	0	---	0.00	30.011 
04:45	72.0	72.0	72.0	88	68.2	0	0	---	0.00	30.008 
04:50	71.8	71.8	71.8	88	68.0	0	0	---	0.00	30.008 
04:55	71.6	71.6	71.6	88	67.8	0	0	---	0.00	30.008 
05:00	71.6	71.6	71.6	88	67.8	0	0	---	0.00	30.011 
05:05	71.5	71.5	71.5	88	67.7	0	0	---	0.00	30.011 
05:10	71.5	71.5	71.5	89	68.1	0	0	---	0.00	30.011 
05:15	71.5	71.5	71.5	89	68.1	0	0	---	0.00	30.013 
05:20	71.3	71.3	71.3	89	67.9	0	0	---	0.00	30.013 
05:25	71.3	71.3	71.3	89	67.9	0	0	---	0.00	30.013 
05:30	71.1	71.1	71.1	89	67.7	0	0	---	0.00	30.013 
05:35	71.1	71.1	71.1	89	67.7	0	0	---	0.00	30.013 
05:40	71.1	71.1	71.1	90	68.0	0	0	---	0.00	30.013 
05:45	70.9	70.9	70.9	90	67.8	0	0	---	0.00	30.013 
05:50	70.9	70.9	70.9	90	67.8	0	0	---	0.00	30.013 
05:55	70.8	70.8	70.8	90	67.7	0	0	---	0.00	30.013 
06:00	70.6	70.6	70.6	90	67.5	0	0	---	0.00	30.014 
06:05	70.6	70.6	70.6	90	67.5	0	0	---	0.00	30.014 
06:10	70.4	70.4	70.4	91	67.6	0	0	---	0.00	30.014 
06:15	70.4	70.4	70.4	91	67.6	0	0	---	0.00	30.016 
06:20	70.4	70.4	70.4	91	67.6	0	0	---	0.00	30.016 
06:25	70.4	70.4	70.4	91	67.6	0	0	---	0.00	30.016 
06:30	70.3	70.3	70.3	91	67.5	0	0	---	0.00	30.019 
06:35	70.3	70.3	70.3	92	67.9	0	0	---	0.00	30.019 
06:40	70.3	70.3	70.3	92	67.9	0	0	---	0.00	30.019 
06:45	70.3	70.3	70.3	92	67.9	0	0	---	0.00	30.017 
06:50	70.3	70.3	70.3	92	67.9	0	0	---	0.00	30.017 
06:55	70.3	70.3	70.3	92	67.9	0	0	---	0.00	30.017 
07:00	70.3	70.3	70.3	92	67.9	0	0	---	0.00	30.017 
07:05	70.4	70.4	70.4	92	68.0	0	0	---	0.00	30.017 
07:10	70.6	70.6	70.6	93	68.5	0	0	---	0.00	30.017 
07:15	70.9	70.9	70.9	93	68.8	0	0	---	0.00	30.017 
07:20	71.1	71.1	71.1	93	69.0	0	0	---	0.00	30.017 
07:25	71.5	71.5	71.5	93	69.4	0	0	---	0.00	30.017 
07:30	71.8	71.8	71.8	93	69.7	0	0	---	0.00	30.017 
07:35	72.5	72.5	72.5	92	70.0	0	0	---	0.00	30.017 
07:40	73.0	73.0	73.0	92	70.5	0	0	---	0.00	30.017 
07:45	73.9	73.9	73.9	88	70.1	0	1	202	0.00	30.015 
07:50	74.7	74.7	74.7	85	69.9	0	1	202	0.00	30.015 
07:55	75.6	75.6	76.1	83	70.1	0	0	---	0.00	30.015 
08:00	76.5	76.5	77.7	82	70.6	0	0	---	0.00	30.013 
08:05	77.6	77.6	79.6	77	69.8	0	1	202	0.00	30.013 
08:10	78.5	78.5	81.0	75	69.9	0	1	202	0.00	30.013 
08:15	79.4	79.4	82.4	74	70.4	0	0	---	0.00	30.014 
08:20	79.8	79.8	83.0	73	70.4	0	1	202	0.00	30.014 
08:25	79.8	79.8	82.9	72	69.9	0	1	202	0.00	30.014 
08:30	80.1	80.1	83.2	71	69.8	0	1	202	0.00	30.014 
08:35	80.3	80.3	83.6	71	70.0	0	1	202	0.00	30.014 
08:40	80.9	80.9	84.6	71	70.6	0	1	202	0.00	30.014 
08:45	81.2	81.2	84.8	69	70.0	0	1	202	0.00	30.014 
08:50	81.6	81.6	85.5	69	70.4	0	1	202	0.00	30.014 
08:55	82.0	82.0	85.8	67	69.9	0	2	202	0.00	30.014 
09:00	82.2	82.2	85.9	66	69.7	0	1	68	0.00	30.011 
09:05	82.6	82.6	86.4	65	69.6	0	2	22	0.00	30.011 
09:10	82.8	82.8	86.7	65	69.8	0	1	22	0.00	30.011 
09:15	83.4	83.4	88.1	66	70.8	0	1	22	0.00	30.013 
09:20	83.6	83.6	87.4	62	69.2	1	2	270	0.00	30.013 
09:25	83.8	83.8	87.7	62	69.4	0	1	270	0.00	30.013 
09:30	84.0	84.0	88.1	62	69.5	0	2	270	0.00	30.008 
09:35	84.3	84.3	88.6	62	69.8	0	2	270	0.00	30.008 
09:40	84.9	84.9	89.4	61	69.9	0	2	270	0.00	30.008 
09:45	85.5	85.5	89.8	59	69.5	0	2	270	0.00	30.006 
09:50	85.9	85.9	90.2	58	69.4	0	1	270	0.00	30.006 
09:55	86.1	86.1	89.9	56	68.5	1	3	270	0.00	30.006 
10:00	86.1	86.1	90.2	57	69.1	1	4	270	0.00	30.003 
10:05	86.3	86.3	89.9	55	68.2	0	2	270	0.00	30.003 
10:10	85.9	85.9	89.6	56	68.3	0	1	270	0.00	30.003 
10:15	85.5	85.5	89.2	57	68.5	0	1	270	0.00	30.004 
10:20	85.1	85.1	88.5	57	68.1	0	1	270	0.00	30.004 
10:25	84.7	84.7	88.4	59	68.8	0	2	270	0.00	30.004 
10:30	84.3	84.3	87.5	58	67.9	0	2	270	0.00	30.005 
10:35	84.1	84.1	87.4	59	68.2	0	1	248	0.00	30.005 
10:40	84.0	84.0	87.5	60	68.6	0	2	248	0.00	30.005 
10:45	83.8	83.8	87.5	61	68.9	0	3	270	0.00	30.003 
10:50	84.3	84.3	88.3	61	69.4	0	2	270	0.00	30.003 
10:55	84.9	84.9	88.8	59	68.9	1	2	270	0.00	30.003 
11:00	85.3	85.3	89.8	60	69.8	1	3	270	0.00	30.004 
11:05	85.7	85.7	89.2	56	68.2	1	4	270	0.00	30.004 
11:10	85.9	85.9	89.9	57	68.9	1	4	270	0.00	30.004 
11:15	86.3	86.3	90.2	56	68.7	1	2	248	0.00	30.005 
11:20	86.5	86.5	90.3	55	68.4	1	3	292	0.00	30.005 
11:25	86.3	86.3	89.9	55	68.2	1	2	292	0.00	30.005 
11:30	86.3	86.3	90.2	56	68.7	1	3	292	0.00	30.003 
11:35	86.7	86.7	90.3	54	68.0	2	5	292	0.00	30.003 
11:40	87.2	87.2	90.8	53	67.9	2	6	270	0.00	30.003 
11:45	87.0	87.0	90.8	54	68.3	2	4	270	0.00	30.000 
11:50	87.0	87.0	91.1	55	68.8	1	4	248	0.00	30.000 
11:55	86.5	86.5	90.6	56	68.9	2	5	248	0.00	30.000 
12:00	85.9	85.9	89.9	57	68.9	2	4	270	0.00	30.000 
12:05	85.7	85.7	89.9	58	69.2	1	3	270	0.00	30.000 
12:10	85.3	85.3	89.5	59	69.3	1	3	292	0.00	30.000 
12:15	85.1	85.1	89.1	59	69.1	1	3	248	0.00	30.003 
12:20	84.7	84.7	88.7	60	69.2	2	4	292	0.00	30.003 
12:25	84.3	84.3	88.6	62	69.8	1	3	292	0.00	30.003 
12:30	83.8	83.8	88.0	63	69.8	1	3	315	0.00	30.004 
12:35	83.2	83.2	87.2	64	69.7	1	3	315	0.00	30.004 
12:40	82.6	82.6	86.6	66	70.1	0	1	315	0.00	30.004 
12:45	82.4	82.4	86.3	66	69.9	0	1	315	0.00	29.999 
12:50	82.4	82.4	86.5	67	70.3	0	1	315	0.00	29.999 
12:55	82.6	82.6	87.1	68	70.9	0	0	---	0.00	29.999 
13:00	83.0	83.0	87.6	67	70.9	0	0	---	0.00	29.993 
13:05	83.4	83.4	88.1	66	70.8	0	2	315	0.00	29.993 
13:10	84.0	84.0	88.9	65	70.9	1	3	338	0.00	29.993 
13:15	84.7	84.7	89.3	62	70.2	1	3	338	0.00	29.983 
13:20	85.5	85.5	90.8	62	71.0	1	3	0	0.00	29.983 
13:25	86.3	86.3	91.7	60	70.7	1	5	68	0.00	29.983 
13:30	87.0	87.0	91.5	56	69.4	2	4	68	0.00	29.971 
13:35	87.8	87.8	92.6	55	69.6	1	4	90	0.00	29.971 
13:40	88.4	88.4	93.7	55	70.1	1	4	270	0.00	29.971 
13:45	89.0	89.0	94.0	53	69.6	1	4	270	0.00	29.965 
13:50	89.5	89.5	95.0	53	70.1	1	4	270	0.00	29.965 
13:55	89.7	89.7	94.9	52	69.7	2	5	292	0.00	29.965 
14:00	89.7	89.7	95.4	53	70.3	1	4	45	0.00	29.957 
14:05	89.7	89.7	95.4	53	70.3	1	4	270	0.00	29.957 
14:10	90.1	90.1	95.7	52	70.1	0	2	292	0.00	29.957 
14:15	90.5	90.5	96.5	52	70.4	1	3	68	0.00	29.950 
14:20	90.7	90.7	96.9	52	70.6	1	5	90	0.00	29.950 
14:25	91.0	91.0	97.0	51	70.3	1	3	270	0.00	29.950 
14:30	91.0	91.0	97.0	51	70.3	1	4	270	0.00	29.937 
14:35	91.2	91.2	97.4	51	70.5	2	4	292	0.00	29.937 
14:40	91.2	91.2	96.4	49	69.3	1	3	0	0.00	29.937 
14:45	91.2	91.2	96.4	49	69.3	2	6	270	0.00	29.933 
14:50	91.2	91.2	96.4	49	69.3	2	5	270	0.00	29.933 
14:55	91.0	91.0	95.6	48	68.5	1	4	270	0.00	29.933 
15:00	91.2	91.2	95.9	48	68.7	2	5	270	0.00	29.928 
15:05	91.6	91.6	97.2	49	69.7	1	4	270	0.00	29.928 
15:10	91.4	91.4	96.8	49	69.5	2	4	270	0.00	29.928 
15:15	91.0	91.0	96.5	50	69.7	1	3	248	0.00	29.920 
15:20	90.5	90.5	95.5	50	69.3	1	2	90	0.00	29.920 
15:25	89.7	89.7	94.9	52	69.7	1	3	248	0.00	29.920 
15:30	89.3	89.3	94.6	53	69.9	0	2	248	0.00	29.920 
15:35	88.8	88.8	93.7	53	69.4	1	2	270	0.00	29.920 
15:40	88.6	88.6	93.3	53	69.2	1	5	270	0.00	29.920 
15:45	88.4	88.4	93.3	54	69.6	1	2	248	0.00	29.922 
15:50	88.2	88.2	93.4	55	70.0	0	1	248	0.00	29.922 
15:55	88.0	88.0	92.6	54	69.2	0	2	248	0.00	29.922 
16:00	87.8	87.8	92.2	54	69.0	1	4	248	0.00	29.922 
16:05	87.6	87.6	91.8	54	68.9	2	5	270	0.00	29.922 
16:10	87.4	87.4	91.9	55	69.2	1	2	270	0.00	29.922 
16:15	87.2	87.2	91.9	56	69.6	1	3	270	0.00	29.929 
16:20	87.0	87.0	91.1	55	68.8	3	7	270	0.00	29.929 
16:25	83.4	83.4	87.3	63	69.5	5	10	315	0.00	29.929 
16:30	81.1	81.1	84.3	67	69.1	3	9	270	0.00	29.949 
16:35	79.8	79.8	82.6	70	69.1	3	9	292	0.00	29.949 
16:40	78.6	78.6	81.0	73	69.2	4	9	270	0.00	29.949 
16:45	77.6	77.6	79.6	76	69.4	4	9	270	0.00	29.961 
16:50	76.8	76.8	78.3	79	69.8	4	10	270	0.00	29.961 
16:55	76.5	76.5	77.6	83	70.9	2	6	270	0.00	29.961 
17:00	75.8	75.8	76.1	86	71.3	2	5	270	0.10	29.975 
17:05	74.9	74.9	74.9	88	71.1	1	2	270	0.13	29.975 
17:10	74.2	74.2	74.2	90	71.1	0	2	270	0.01	29.975 
17:15	73.9	73.9	73.9	91	71.1	0	2	270	0.01	29.982 
17:20	73.7	73.7	73.7	92	71.2	0	0	---	0.02	29.982 
17:25	73.7	73.7	73.7	92	71.2	0	1	270	0.01	29.982 
17:30	73.7	73.7	73.7	92	71.2	0	0	---	0.01	29.983 
17:35	73.7	73.7	73.7	93	71.5	0	1	270	0.01	29.983 
17:40	73.7	73.7	73.7	93	71.5	0	2	270	0.01	29.983 
17:45	73.5	73.5	73.5	93	71.3	0	1	270	0.01	29.979 
17:50	73.3	73.3	73.3	94	71.5	0	1	270	0.02	29.979 
17:55	73.3	73.3	73.3	94	71.5	0	0	---	0.01	29.979 
18:00	73.3	73.3	73.3	94	71.5	0	1	270	0.01	29.975 
18:05	73.3	73.3	73.3	94	71.5	0	0	---	0.01	29.975 
18:10	73.3	73.3	73.3	94	71.5	0	0	---	0.01	29.975 
18:15	73.3	73.3	73.3	92	70.8	0	0	---	0.02	29.969 
18:20	73.5	73.5	73.5	95	72.0	0	0	---	0.01	29.969 
18:25	73.5	73.5	73.5	95	72.0	0	0	---	0.01	29.969 
18:30	73.5	73.5	73.5	95	72.0	0	0	---	0.01	29.967 
18:35	73.5	73.5	73.5	95	72.0	0	1	270	0.01	29.967 
18:40	73.7	73.7	73.7	95	72.2	0	0	---	0.01	29.967 
18:45	73.7	73.7	73.7	95	72.2	0	1	270	0.00	29.963 
18:50	73.9	73.9	73.9	95	72.4	0	0	---	0.00	29.963 
18:55	74.0	74.0	74.0	95	72.5	0	0	---	0.00	29.963 
19:00	74.2	74.2	74.2	95	72.7	0	0	---	0.00	29.952 
19:05	74.4	74.4	74.4	95	72.9	0	0	---	0.00	29.952 
19:10	74.4	74.4	74.4	95	72.9	0	0	---	0.00	29.952 
19:15	74.6	74.6	74.6	95	73.1	0	0	---	0.00	29.942 
19:20	74.6	74.6	74.6	95	73.1	0	0	---	0.00	29.942 
19:25	74.7	74.7	74.7	95	73.2	0	0	---	0.00	29.942 
19:30	74.7	74.7	74.7	95	73.2	0	0	---	0.00	29.941 
19:35	74.6	74.6	74.6	95	73.1	0	0	---	0.00	29.941 
19:40	74.6	74.6	74.6	95	73.1	0	0	---	0.00	29.941 
19:45	74.6	74.6	74.6	95	73.1	0	1	292	0.00	29.941 
19:50	74.4	74.4	74.4	95	72.9	0	0	---	0.00	29.941 
19:55	74.6	74.6	74.6	95	73.1	0	0	---	0.00	29.941 
20:00	74.6	74.6	74.6	95	73.1	0	1	292	0.00	29.945 
20:05	74.6	74.6	74.6	95	73.1	0	0	---	0.00	29.945 
20:10	74.6	74.6	74.6	95	73.1	0	0	---	0.00	29.945 
20:15	74.6	74.6	74.6	96	73.4	0	1	292	0.00	29.952 
20:20	74.4	74.4	74.4	95	72.9	0	0	---	0.00	29.952 
20:25	74.4	74.4	74.4	95	72.9	0	0	---	0.00	29.952 
20:30	74.4	74.4	74.4	96	73.2	0	0	---	0.00	29.950 
20:35	74.4	74.4	74.4	96	73.2	0	0	---	0.00	29.950 
20:40	74.4	74.4	74.4	95	72.9	0	0	---	0.00	29.950 
20:45	74.4	74.4	74.4	95	72.9	0	0	---	0.00	29.945 
20:50	74.4	74.4	74.4	95	72.9	0	0	---	0.00	29.945 
20:55	74.4	74.4	74.4	95	72.9	0	0	---	0.00	29.945 
21:00	74.4	74.4	74.4	96	73.2	0	0	---	0.00	29.945 
21:05	74.4	74.4	74.4	96	73.2	0	0	---	0.00	29.945 
21:10	74.4	74.4	74.4	96	73.2	0	0	---	0.00	29.945 
21:15	74.6	74.6	74.6	96	73.4	0	0	---	0.00	29.944 
21:20	74.6	74.6	74.6	96	73.4	0	0	---	0.00	29.944 
21:25	74.4	74.4	74.4	96	73.2	0	0	---	0.00	29.944 
21:30	74.4	74.4	74.4	96	73.2	0	0	---	0.00	29.946 
21:35	74.2	74.2	74.2	96	73.0	0	0	---	0.00	29.946 
21:40	74.2	74.2	74.2	96	73.0	0	1	292	0.00	29.946 
21:45	74.2	74.2	74.2	96	73.0	0	0	---	0.00	29.945 
21:50	74.0	74.0	74.0	96	72.8	0	0	---	0.00	29.945 
21:55	74.0	74.0	74.0	96	72.8	0	0	---	0.00	29.945 
22:00	74.0	74.0	74.0	96	72.8	0	0	---	0.00	29.950 
22:05	73.9	73.9	73.9	96	72.7	0	0	---	0.00	29.950 
22:10	73.9	73.9	73.9	96	72.7	0	0	---	0.00	29.950 
22:15	73.9	73.9	73.9	96	72.7	0	0	---	0.00	29.953 
22:20	73.9	73.9	73.9	96	72.7	0	0	---	0.00	29.953 
22:25	73.9	73.9	73.9	96	72.7	0	0	---	0.00	29.953 
22:30	73.7	73.7	73.7	96	72.5	0	0	---	0.00	29.952 
22:35	73.7	73.7	73.7	96	72.5	0	0	---	0.00	29.952 
22:40	73.7	73.7	73.7	96	72.5	0	0	---	0.00	29.952 
22:45	73.7	73.7	73.7	96	72.5	0	0	---	0.00	29.951 
22:50	73.7	73.7	73.7	96	72.5	0	0	---	0.00	29.951 
22:55	73.5	73.5	73.5	96	72.3	0	0	---	0.00	29.951 
23:00	73.5	73.5	73.5	96	72.3	0	0	---	0.00	29.955 
23:05	73.5	73.5	73.5	96	72.3	0	0	---	0.00	29.955 
23:10	73.5	73.5	73.5	96	72.3	0	0	---	0.00	29.955 
23:15	73.7	73.7	73.7	96	72.5	0	0	---	0.00	29.951 
23:20	73.7	73.7	73.7	96	72.5	0	0	---	0.00	29.951 
23:25	73.7	73.7	73.7	96	72.5	0	0	---	0.00	29.951 
23:30	73.7	73.7	73.7	96	72.5	0	0	---	0.00	29.950 
23:35	73.9	73.9	73.9	96	72.7	0	0	---	0.00	29.950 
23:40	73.9	73.9	73.9	96	72.7	0	0	---	0.00	29.950 
23:45	73.9	73.9	73.9	96	72.7	0	0	---	0.00	29.944 
23:50	73.7	73.7	73.7	96	72.5	0	0	---	0.00	29.944 
23:55	73.7	73.7	73.7	96	72.5	0	0	---	0.00	29.944 

CoCoRaHS
IN-AL-39
A2 Web Hosting
Creative Commons License
GoDaddy
search engine by freefind advanced

loaded 2018-11-14 00:31:10 • last modified 2010-11-18 10:43:29
Privacy PolicyDisclaimer
• wx.awcolley.com is powered by PmWiki v.2002016 •
• all content (unless otherwise noted) © 2018 A W Colley